Temp
3 4 5 6 5 6 5 5 5 4 4 4 3 6 5 5 6 6 7 7 7 8 8 8 8 8 7 7 5 5 5 4 3 4 4 4 3 4 4 4 3 3 2 2 3 3 4 7 6 7 7 7 7 7
3 4 4 5 5 5 5 5 5 4 4 4 3 3 4 5 5 6 6 6 6 7 7 7 7 7 7 8 8 7 6 5 6 3 2 2 4 2 3 6 2 4 4 3 3 5 7 8 8 9 9 9 8 8
3 3 4 4 5 5 5 5 5 5 4 4 3 3 2 3 4 5 5 6 6 6 6 6 6 7 7 7 7 7 6 7 6 7 4 2 4 2 4 3 4 4 5 4 5 7 5 8 9 9 9 8 9 8
2 3 3 4 4 5 5 5 5 5 5 4 3 3 3 3 3 4 4 5 5 6 4 5 5 5 5 5 5 6 6 6 6 6 5 2 3 5 3 4 3 6 4 3 3 5 7 9 9 9 8 7 7 7
1 1 3 3 3 4 4 5 5 5 5 4 4 3 3 3 3 3 3 4 5 5 4 5 5 4 4 4 4 4 4 5 5 4 0 1 3 2 1 1 2 5 4 3 5 8 7 8 9 9 9 8 6 6
-1 0 1 2 3 4 4 4 5 5 5 5 4 3 3 3 3 3 3 5 5 4 4 0 2 2 2 3 3 3 3 3 4 4 3 4 3 3 0 0 5 7 8 8 7 7 6 6 7 8 7 6 5 5
-1 -0 0 1 2 3 4 4 4 5 5 5 4 3 3 3 3 3 4 4 4 3 4 2 0 0 0 1 1 1 2 2 3 3 1 1 2 2 -1 0 6 7 5 5 5 5 5 6 6 6 5 4 4 4
-1 -1 -0 1 2 2 3 4 4 4 5 5 4 3 3 3 3 3 4 4 4 3 3 -4 -3 0 0 0 0 0 1 1 1 1 0 -0 1 -0 -0 2 4 4 4 4 4 4 4 4 5 4 4 3 3 3
-1 -1 -0 -0 0 2 2 3 4 4 4 4 4 3 3 3 3 3 3 3 3 3 3 -1 -3 -2 -1 -1 -0 -0 -0 -1 -0 -1 -1 -0 -1 1 1 2 2 2 2 3 3 3 3 3 3 3 3 2 2 2
-2 -2 -1 -0 0 1 1 2 3 4 4 4 4 2 2 2 2 3 2 2 1 1 1 -1 0 -2 -0 -1 -1 -1 -1 -3 -1 -1 -1 -0 1 2 2 1 1 2 2 2 1 2 3 3 2 2 2 2 2 2
-2 -2 -2 -2 1 0 1 1 2 3 2 3 2 0 0 1 2 2 0 -0 -0 -1 -1 0 1 -2 0 -1 -1 -1 -3 -3 -5 -3 -2 -1 -2 -0 1 2 2 2 2 2 1 2 3 3 2 2 2 2 2 2
-2 -2 -2 -2 0 2 2 2 2 1 1 3 2 0 -1 0 -0 -0 -1 -1 -2 -1 -2 -2 -2 1 -0 1 -1 -1 -2 -2 -1 -2 -1 -1 -3 0 1 1 1 2 2 2 2 2 2 2 2 2 2 2 1 0
-2 -2 -1 -1 0 2 2 2 2 0 1 2 1 -0 -1 -1 -1 -0 -2 -3 -2 -3 -3 -2 -2 0 -1 0 -1 -2 -2 -2 -3 -1 -0 -4 -1 -0 0 1 1 1 1 1 2 2 2 2 2 1 1 1 0 -0
-2 -1 -0 0 1 1 1 2 1 -0 1 2 -1 -2 -1 -2 -2 -3 -3 -4 -0 -1 -2 -1 -3 -1 -1 -3 -3 -3 -2 -2 -3 -1 -3 -6 -0 -0 0 1 1 1 1 1 1 2 2 2 1 1 0 -0 -0 -1
-1 0 1 2 2 2 1 1 0 0 2 0 -1 0 -2 -2 -4 -2 -1 -2 -2 -1 -1 -2 -2 -2 -3 -3 -2 -2 -3 -1 -0 -3 -5 1 0 1 1 1 1 1 1 1 1 1 1 1 0 -0 -0 -1 -1 -1
-0 -0 2 2 1 1 1 0 0 1 1 -1 -2 -3 -4 -4 -5 -5 -3 -3 -2 -1 1 0 -3 -3 -2 -3 -4 -1 -4 -4 -4 -6 1 1 0 0 0 0 0 0 -0 -0 -0 -1 -1 -1 -1 -2 -2 -2 -1 -2
1 1 1 1 1 1 1 0 0 -0 -1 -4 -4 -4 -3 -2 -3 -4 -2 -2 -2 0 -4 -4 -4 -2 -4 -6 -4 -6 -5 -5 -0 0 1 0 -0 -0 -0 0 0 -0 -0 -1 -1 -1 -1 -2 -2 -2 -2 -1 -2 -2
0 2 1 1 1 0 -1 -1 -2 -4 -4 -4 -4 -4 -4 -3 -3 -3 -2 -1 -1 -1 -1 -4 -2 -4 -3 -5 -6 -5 -1 0 1 1 1 0 -0 -0 -1 -1 -1 -1 -1 -1 -2 -2 -2 -2 -2 -2 -2 -2 -2 -2
0 1 1 0 0 -1 -3 -4 -4 -5 -5 -4 -4 -4 -4 -4 -3 -2 -2 -2 -1 -1 -1 -3 -4 -6 -4 -4 -2 -0 0 0 0 -0 -1 -1 -1 -1 -1 -1 -1 -1 -2 -2 -2 -2 -2 -2 -2 -2 -2 -2 -3 -2
-3 -2 -1 -0 -0 -2 -4 -4 -4 -4 -5 -5 -4 -4 -4 -4 -3 -3 -2 -2 -2 -2 -3 -5 -5 -3 -2 0 1 1 1 0 -1 -1 -1 -1 -1 -1 -1 -2 -2 -2 -2 -2 -2 -2 -2 -2 -2 -2 -3 -3 -4 -4
-3 -4 -2 -1 -2 -4 -5 -5 -5 -5 -4 -5 -5 -5 -5 -4 -4 -4 -3 -3 -3 -3 -5 -2 -1 0 0 -0 -0 -1 -1 -2 -2 -2 -2 -2 -2 -2 -2 -2 -2 -2 -2 -2 -2 -2 -3 -3 -3 -4 -4 -4 -4 -5
-3 -3 -4 -4 -5 -5 -6 -6 -6 -6 -5 -6 -5 -5 -6 -6 -6 -5 -5 -4 -4 -2 -1 -0 0 0 -0 -1 -1 -2 -1 -1 -2 -2 -2 -2 -2 -2 -2 -2 -2 -2 -2 -3 -3 -4 -4 -4 -4 -5 -5 -5 -5 -6
-2 -2 -4 -5 -5 -5 -6 -6 -6 -7 -6 -7 -6 -6 -9 -8 -7 -6 -7 -5 -3 -1 -0 -0 -0 -1 -1 -1 -1 -1 -2 -2 -2 -1 -1 -2 -2 -2 -3 -3 -3 -3 -4 -4 -4 -5 -5 -5 -5 -6 -6 -6 -6 -6
-2 -3 -5 -6 -5 -8 -6 -7 -7 -8 -7 -8 -8 -8 -10 -9 -8 -8 -10 -5 -1 -1 -1 -1 -2 -2 -2 -2 -1 -1 -1 -2 -2 -2 -2 -3 -3 -3 -3 -3 -4 -4 -5 -5 -5 -6 -6 -6 -6 -6 -6 -7 -6 -6
-3 -7 -6 -9 -8 -8 -9 -9 -9 -10 -10 -11 -11 -11 -12 -10 -12 -13 -10 -5 -2 -1 -1 -1 -1 -1 -1 -1 -1 -2 -2 -2 -3 -3 -3 -4 -4 -4 -4 -4 -5 -5 -4 -5 -5 -6 -5 -6 -5 -6 -6 -7 -7 -6
-11 -9 -10 -10 -9 -9 -11 -10 -10 -11 -12 -12 -13 -13 -11 -15 -13 -10 -10 -2 -1 -1 -1 -1 -1 -2 -2 -2 -2 -3 -3 -3 -4 -4 -3 -4 -5 -5 -5 -5 -5 -4 -4 -5 -6 -6 -6 -6 -6 -6 -7 -7 -7 -7
-13 -13 -9 -8 -8 -8 -10 -10 -10 -11 -14 -12 -14 -15 -15 -11 -12 -9 -2 -1 -1 -1 -2 -2 -3 -3 -3 -3 -3 -3 -4 -4 -5 -5 -4 -4 -4 -4 -5 -5 -5 -5 -6 -6 -6 -6 -6 -6 -7 -7 -7 -7 -7 -7
-8 -7 -11 -9 -8 -8 -13 -15 -15 -13 -13 -10 -10 -13 -11 -11 -9 -2 -1 -1 -2 -2 -3 -3 -3 -4 -4 -4 -4 -4 -4 -4 -4 -4 -4 -4 -4 -4 -5 -5 -5 -6 -6 -6 -6 -6 -7 -7 -8 -8 -8 -8 -8 -8
-7 -7 -7 -10 -10 -10 -9 -13 -11 -6 -5 -7 -12 -12 -9 -4 -2 -2 -2 -3 -4 -4 -4 -3 -3 -4 -3 -3 -3 -4 -4 -4 -4 -4 -4 -4 -4 -4 -5 -5 -6 -6 -6 -7 -7 -7 -8 -8 -9 -9 -9 -9 -10 -9
-8 -7 -9 -11 -11 -12 -5 -5 -5 -4 -5 -4 -4 -4 -3 -3 -3 -4 -4 -3 -3 -2 -3 -3 -3 -3 -3 -3 -3 -3 -4 -5 -5 -6 -6 -7 -6 -6 -6 -6 -6 -7 -7 -8 -8 -8 -8 -9 -8 -9 -10 -10 -10 -10
-7 -7 -7 -9 -11 -6 -5 -5 -5 -5 -6 -7 -6 -6 -6 -5 -3 -2 -2 -2 -2 -2 -3 -3 -3 -4 -5 -5 -5 -5 -5 -6 -6 -7 -7 -7 -7 -7 -7 -8 -8 -8 -8 -8 -9 -9 -10 -10 -10 -11 -10 -10 -10 -10
-9 -8 -9 -9 -9 -6 -6 -6 -6 -6 -6 -6 -5 -6 -6 -5 -5 -2 -3 -3 -4 -4 -5 -5 -5 -6 -7 -7 -7 -7 -7 -7 -7 -7 -7 -8 -9 -9 -9 -9 -9 -9 -11 -11 -10 -10 -11 -11 -11 -10 -10 -10 -10 -10
-8 -8 -8 -9 -9 -8 -7 -7 -7 -8 -7 -7 -6 -6 -6 -6 -5 -4 -4 -4 -5 -5 -5 -5 -6 -7 -8 -8 -8 -8 -9 -9 -9 -9 -10 -10 -10 -10 -11 -10 -10 -11 -10 -10 -10 -10 -10 -10 -10 -11 -11 -10 -10 -9
Height
1488 1488 1490 1493 1496 1499 1501 1504 1506 1507 1507 1509 1510 1510 1511 1512 1513 1514 1514 1514 1515 1514 1512 1512 1512 1512 1512 1513 1516 1518 1521 1521 1525 1529 1531 1529 1531 1526 1527 1525 1529 1529 1537 1539 1541 1542 1530 1494 1498 1501 1492 1487 1487 1486
1482 1484 1485 1486 1489 1492 1495 1499 1502 1504 1505 1505 1507 1509 1509 1511 1512 1512 1512 1512 1513 1514 1512 1510 1510 1511 1511 1511 1512 1512 1512 1512 1514 1521 1526 1526 1525 1529 1527 1523 1522 1524 1513 1520 1520 1509 1493 1492 1489 1488 1488 1487 1487 1487
1477 1478 1479 1481 1483 1485 1489 1492 1496 1499 1501 1502 1504 1506 1508 1508 1510 1511 1511 1510 1511 1511 1509 1507 1507 1508 1508 1508 1510 1511 1510 1510 1510 1511 1514 1518 1520 1520 1522 1522 1515 1509 1506 1510 1507 1488 1487 1487 1487 1486 1486 1485 1485 1486
1471 1472 1473 1474 1478 1479 1482 1485 1488 1492 1496 1498 1500 1503 1505 1507 1508 1509 1509 1509 1510 1510 1508 1504 1503 1503 1504 1506 1507 1508 1508 1508 1509 1510 1510 1514 1517 1511 1512 1508 1509 1501 1502 1500 1499 1486 1485 1482 1481 1480 1480 1481 1481 1482
1467 1468 1467 1469 1471 1473 1475 1478 1481 1484 1489 1493 1496 1498 1502 1504 1506 1507 1506 1506 1507 1510 1506 1503 1502 1501 1502 1503 1504 1504 1507 1508 1507 1508 1509 1512 1508 1509 1508 1508 1504 1492 1491 1496 1489 1480 1481 1479 1478 1478 1478 1477 1478 1480
1462 1460 1462 1464 1464 1466 1468 1470 1474 1478 1481 1486 1491 1495 1498 1499 1504 1506 1504 1503 1502 1503 1507 1504 1500 1497 1497 1500 1502 1502 1503 1507 1508 1506 1505 1503 1503 1505 1508 1506 1486 1482 1482 1481 1478 1477 1476 1475 1474 1473 1473 1475 1477 1479
1455 1454 1455 1456 1456 1458 1460 1463 1467 1472 1476 1479 1484 1489 1493 1496 1499 1501 1500 1498 1498 1501 1505 1501 1497 1497 1498 1500 1501 1501 1501 1504 1506 1505 1504 1503 1501 1503 1502 1499 1480 1479 1478 1477 1477 1475 1473 1471 1469 1469 1471 1473 1475 1477
1446 1446 1446 1447 1448 1450 1452 1455 1460 1463 1469 1474 1477 1483 1488 1493 1494 1493 1494 1497 1498 1501 1502 1500 1496 1496 1496 1498 1500 1500 1501 1504 1504 1502 1502 1500 1500 1499 1496 1477 1474 1475 1475 1474 1473 1473 1472 1470 1469 1469 1471 1472 1475 1477
1437 1436 1436 1439 1439 1439 1444 1448 1453 1457 1462 1466 1471 1478 1482 1484 1484 1485 1490 1494 1497 1502 1498 1496 1497 1496 1494 1495 1497 1500 1500 1503 1503 1500 1499 1499 1496 1489 1472 1473 1474 1474 1473 1472 1471 1470 1468 1468 1468 1469 1471 1473 1476 1478
1427 1428 1427 1427 1427 1430 1435 1439 1446 1451 1458 1464 1466 1470 1472 1474 1477 1484 1485 1489 1492 1491 1489 1488 1489 1490 1490 1492 1494 1498 1499 1502 1503 1499 1498 1493 1481 1469 1470 1471 1470 1469 1468 1466 1465 1465 1465 1465 1466 1468 1470 1472 1474 1476
1415 1415 1414 1416 1416 1419 1422 1429 1438 1448 1453 1455 1449 1459 1463 1468 1474 1476 1479 1482 1483 1482 1478 1476 1478 1484 1488 1490 1492 1494 1497 1499 1507 1499 1499 1489 1481 1469 1468 1467 1467 1465 1462 1459 1460 1462 1462 1463 1465 1468 1470 1472 1472 1473
1401 1400 1401 1399 1400 1404 1409 1417 1428 1438 1442 1443 1443 1453 1462 1463 1463 1468 1470 1474 1474 1469 1466 1470 1475 1479 1484 1487 1488 1493 1495 1497 1497 1495 1496 1487 1472 1468 1466 1465 1464 1462 1461 1460 1460 1461 1462 1464 1467 1469 1470 1470 1469 1468
1387 1385 1384 1384 1386 1389 1395 1404 1415 1426 1434 1439 1440 1443 1448 1454 1456 1457 1459 1458 1458 1455 1455 1462 1475 1477 1480 1483 1486 1489 1493 1495 1492 1492 1483 1475 1466 1465 1464 1465 1464 1464 1463 1463 1463 1464 1466 1467 1468 1469 1468 1467 1465 1463
1370 1368 1368 1368 1371 1374 1383 1391 1402 1414 1427 1431 1431 1435 1436 1440 1433 1429 1432 1434 1434 1438 1445 1459 1467 1470 1476 1479 1482 1489 1487 1490 1492 1484 1479 1466 1463 1464 1464 1465 1466 1466 1466 1466 1466 1467 1467 1467 1466 1464 1463 1461 1458 1455
1348 1346 1347 1350 1355 1362 1370 1380 1393 1407 1413 1417 1423 1418 1420 1416 1414 1418 1421 1427 1431 1436 1446 1457 1463 1468 1474 1476 1476 1480 1486 1479 1472 1469 1463 1459 1462 1464 1465 1466 1467 1467 1467 1467 1466 1465 1464 1462 1460 1458 1457 1454 1451 1448
1328 1328 1328 1335 1344 1353 1363 1379 1392 1400 1403 1406 1403 1408 1411 1415 1418 1419 1420 1424 1429 1438 1447 1452 1461 1467 1468 1468 1473 1468 1478 1474 1461 1456 1455 1458 1460 1462 1463 1464 1464 1464 1463 1462 1461 1460 1458 1456 1454 1451 1449 1447 1444 1441
1312 1313 1320 1328 1337 1348 1361 1372 1384 1391 1396 1400 1404 1405 1406 1403 1404 1410 1414 1419 1428 1434 1440 1447 1458 1456 1461 1468 1468 1464 1463 1454 1449 1450 1454 1457 1458 1460 1461 1460 1460 1459 1458 1456 1454 1453 1451 1450 1447 1444 1440 1438 1435 1433
1305 1312 1319 1326 1334 1345 1357 1368 1379 1387 1392 1396 1401 1403 1404 1402 1402 1408 1412 1420 1424 1430 1433 1443 1443 1449 1450 1458 1457 1447 1446 1449 1450 1451 1453 1456 1458 1457 1457 1456 1455 1453 1451 1449 1448 1445 1443 1441 1439 1435 1432 1429 1427 1424
1308 1317 1324 1331 1336 1345 1361 1374 1380 1388 1392 1392 1397 1400 1402 1400 1400 1406 1414 1419 1423 1426 1434 1437 1442 1446 1444 1442 1440 1442 1445 1447 1449 1451 1453 1453 1453 1452 1451 1450 1448 1446 1444 1443 1440 1437 1435 1433 1431 1428 1425 1422 1419 1415
1321 1322 1326 1334 1343 1351 1367 1380 1385 1389 1396 1400 1401 1402 1404 1403 1406 1415 1416 1416 1423 1429 1434 1438 1436 1435 1437 1438 1440 1443 1445 1446 1447 1447 1447 1446 1446 1445 1444 1442 1441 1439 1437 1434 1432 1430 1427 1425 1423 1421 1418 1414 1411 1406
1334 1334 1333 1336 1346 1360 1371 1376 1383 1392 1396 1400 1402 1405 1407 1409 1413 1416 1417 1420 1426 1428 1434 1432 1431 1434 1436 1438 1439 1440 1441 1442 1442 1442 1440 1438 1438 1437 1436 1435 1434 1432 1430 1427 1424 1421 1420 1416 1413 1411 1408 1405 1402 1399
1345 1342 1341 1344 1354 1365 1376 1383 1385 1390 1397 1401 1405 1408 1412 1411 1413 1419 1422 1426 1428 1428 1428 1427 1429 1431 1433 1433 1434 1435 1436 1437 1436 1435 1435 1433 1431 1430 1430 1429 1427 1425 1422 1420 1418 1414 1410 1408 1405 1401 1398 1395 1393 1389
1353 1352 1351 1358 1365 1376 1388 1387 1390 1394 1399 1405 1407 1409 1414 1416 1421 1424 1427 1428 1426 1424 1424 1425 1426 1428 1429 1429 1430 1430 1430 1431 1430 1430 1429 1428 1425 1424 1423 1421 1420 1417 1413 1411 1409 1405 1402 1400 1396 1393 1390 1387 1384 1381
1357 1359 1364 1369 1378 1388 1390 1392 1393 1397 1402 1405 1408 1416 1422 1424 1426 1431 1431 1422 1420 1421 1422 1423 1424 1425 1425 1426 1426 1427 1427 1426 1425 1424 1423 1421 1419 1415 1415 1413 1411 1409 1406 1403 1400 1397 1394 1390 1388 1385 1383 1380 1377 1373
1367 1379 1380 1387 1391 1394 1400 1402 1406 1408 1414 1418 1419 1424 1426 1426 1430 1433 1429 1421 1419 1419 1420 1421 1422 1423 1424 1423 1422 1422 1422 1421 1419 1415 1413 1414 1410 1407 1404 1404 1402 1401 1399 1395 1392 1389 1386 1384 1381 1379 1376 1373 1370 1366
1384 1390 1391 1393 1396 1397 1404 1409 1410 1411 1414 1421 1425 1427 1427 1430 1436 1431 1423 1417 1417 1419 1420 1421 1422 1422 1421 1418 1415 1413 1413 1413 1410 1406 1404 1404 1402 1400 1396 1395 1393 1391 1392 1389 1385 1383 1380 1378 1375 1372 1369 1366 1363 1360
1397 1399 1398 1398 1399 1400 1406 1410 1412 1414 1423 1426 1427 1429 1430 1433 1434 1420 1415 1415 1417 1418 1418 1418 1418 1415 1412 1408 1406 1404 1403 1402 1401 1398 1396 1395 1394 1393 1391 1389 1387 1386 1384 1382 1380 1378 1375 1372 1368 1365 1361 1358 1355 1353
1397 1399 1402 1404 1404 1406 1411 1415 1418 1421 1420 1420 1423 1428 1426 1424 1419 1413 1413 1414 1414 1413 1411 1409 1408 1405 1401 1399 1397 1396 1395 1394 1393 1392 1390 1389 1388 1387 1385 1383 1381 1380 1378 1377 1375 1372 1369 1365 1361 1357 1353 1349 1347 1345
1401 1403 1404 1408 1408 1408 1409 1410 1411 1411 1412 1414 1415 1416 1412 1409 1409 1410 1410 1410 1408 1407 1404 1401 1400 1398 1396 1395 1393 1392 1390 1389 1388 1386 1385 1383 1382 1381 1379 1377 1376 1374 1372 1369 1367 1364 1361 1357 1354 1350 1347 1344 1341 1338
1402 1403 1404 1408 1410 1410 1406 1407 1408 1409 1409 1410 1410 1409 1408 1407 1407 1406 1404 1403 1403 1401 1400 1398 1397 1395 1393 1391 1389 1388 1387 1385 1383 1382 1379 1377 1375 1374 1371 1369 1366 1364 1362 1359 1356 1354 1352 1349 1345 1343 1340 1337 1335 1332
1405 1405 1406 1406 1406 1405 1405 1405 1405 1405 1405 1405 1406 1405 1403 1402 1400 1400 1401 1401 1400 1400 1399 1398 1396 1394 1391 1388 1385 1383 1381 1380 1377 1375 1372 1369 1366 1363 1361 1358 1356 1354 1351 1348 1346 1344 1342 1340 1338 1336 1334 1333 1331 1328
1408 1409 1410 1410 1407 1406 1405 1403 1403 1402 1402 1402 1402 1401 1401 1401 1400 1400 1401 1400 1400 1398 1397 1395 1393 1389 1386 1384 1381 1379 1375 1372 1370 1367 1363 1359 1356 1353 1350 1348 1345 1344 1342 1341 1339 1338 1337 1335 1333 1332 1330 1329 1327 1324
1411 1411 1411 1411 1409 1407 1407 1406 1405 1404 1404 1403 1403 1402 1402 1402 1400 1401 1400 1400 1399 1397 1394 1391 1387 1384 1381 1378 1375 1371 1368 1364 1360 1356 1353 1350 1347 1344 1342 1339 1338 1337 1336 1334 1333 1332 1330 1329 1328 1327 1326 1324 1323 1321
Wind_Speed
20 20 23 26 24 24 24 21 18 14 14 12 14 13 13 11 8 6 5 5 5 4 6 7 7 6 5 6 4 7 4 2 2 2 3 3 3 4 1 3 6 7 6 4 4 3 8 6 5 6 3 2 5 8
20 23 22 23 27 26 25 23 21 18 14 13 13 13 13 13 11 9 7 6 6 7 5 7 11 12 12 8 7 13 2 5 9 3 2 2 2 1 3 3 1 3 6 5 9 7 5 8 9 10 7 5 9 12
20 21 23 24 23 27 25 25 24 21 19 15 13 14 12 12 13 12 10 8 6 6 9 12 12 15 14 14 13 6 6 6 6 6 6 2 3 4 4 5 3 5 8 3 1 7 15 25 25 24 19 13 11 14
17 20 22 23 25 25 27 26 25 25 22 17 16 13 14 12 13 12 11 9 8 4 3 4 7 8 9 13 15 15 7 8 6 7 3 3 3 8 3 2 4 5 8 5 5 14 18 27 25 19 18 18 15 15
18 18 20 24 25 26 27 28 27 25 25 22 19 14 16 14 12 12 12 12 11 8 3 4 7 9 10 10 11 13 14 10 7 5 2 3 4 2 1 1 4 10 6 4 6 11 10 14 14 12 16 20 16 15
22 21 21 22 25 27 26 28 28 30 27 25 22 18 18 17 14 9 5 15 18 15 4 2 4 6 8 9 10 8 11 11 6 4 4 5 4 5 3 4 11 15 16 20 17 21 22 23 20 18 16 15 14 12
27 26 25 23 24 27 29 28 29 32 30 28 27 23 20 21 19 16 5 4 7 12 4 3 2 1 4 4 5 6 8 6 6 4 4 3 3 5 2 4 9 11 8 10 13 15 13 13 8 10 11 12 12 11
30 29 28 27 26 27 29 30 30 28 32 29 30 24 22 23 27 24 18 7 6 6 5 1 3 2 8 4 3 5 4 6 5 3 2 3 2 2 4 18 20 13 13 12 10 12 9 9 9 8 11 13 12 10
31 32 32 33 31 29 31 32 32 32 33 29 27 25 23 32 26 25 21 18 15 8 3 4 4 4 9 4 3 4 4 1 2 2 3 4 2 6 9 5 8 9 10 17 17 12 14 9 8 10 12 11 9 5
32 33 35 36 35 34 33 33 33 32 31 28 31 19 13 12 18 23 16 8 8 9 10 6 7 3 9 6 4 4 2 1 2 4 3 3 4 21 17 12 15 17 19 20 16 13 11 10 13 14 13 10 6 3
33 34 37 39 38 37 36 34 31 28 22 35 17 11 12 23 18 12 7 6 8 4 9 9 21 6 9 3 3 6 3 2 1 3 2 3 4 4 3 10 13 13 12 9 10 8 7 8 15 14 10 6 2 7
35 35 40 39 39 40 38 35 32 32 30 28 25 23 22 8 6 5 5 5 5 7 10 8 6 7 8 5 4 5 3 1 4 4 2 4 3 5 10 8 7 5 3 1 3 3 8 10 11 10 4 7 13 17
37 40 43 41 40 38 38 37 38 38 36 25 16 11 10 8 4 7 10 4 4 11 13 13 5 8 6 5 4 3 4 4 7 2 4 4 4 5 4 1 4 5 5 5 7 8 7 6 5 7 13 17 21 24
41 44 40 34 31 33 32 38 42 47 37 15 11 5 6 5 7 5 5 5 9 13 27 25 7 5 4 3 5 4 3 4 3 4 6 3 4 2 6 5 3 3 3 3 4 4 5 10 15 18 22 23 26 28
42 38 31 31 32 32 32 39 51 55 20 9 9 9 8 5 3 11 13 15 11 27 34 15 8 5 2 3 3 3 2 5 5 5 3 14 11 10 7 4 2 2 2 5 8 13 17 21 25 28 28 28 29 31
35 23 31 28 30 32 34 49 55 43 13 9 3 4 5 6 4 10 18 13 27 33 21 6 4 3 3 4 3 6 6 7 4 3 14 19 14 7 3 6 7 10 12 15 17 20 22 24 26 27 28 31 32 31
18 15 22 23 31 37 52 51 30 12 9 5 4 6 10 8 11 16 18 21 38 31 3 5 6 7 4 3 3 4 5 3 6 8 23 20 8 7 13 16 17 18 19 21 23 24 25 27 29 29 32 30 29 28
17 20 22 34 46 57 39 13 9 5 3 3 3 7 6 10 22 21 15 36 25 15 11 5 8 3 5 7 3 4 8 8 10 9 17 14 9 16 18 19 20 22 24 26 26 26 28 28 28 29 30 29 28 28
28 30 36 47 50 29 7 5 5 5 5 7 9 12 7 15 18 21 26 30 15 15 16 5 3 3 3 6 6 4 11 13 10 9 6 13 17 20 21 22 23 25 25 26 27 27 26 24 24 25 27 29 30 32
28 33 46 45 35 8 7 7 6 8 4 4 8 8 8 8 20 22 27 20 20 11 3 2 4 6 6 5 6 4 5 7 7 14 19 20 20 21 23 24 26 26 27 24 22 24 26 29 30 30 28 27 28 32
28 27 25 25 23 12 7 5 6 6 8 6 9 6 6 13 12 12 10 17 4 5 5 6 8 7 6 6 7 10 11 12 12 16 21 24 23 24 26 25 23 22 22 24 28 30 29 30 30 28 29 29 28 29
21 28 31 22 9 8 9 8 8 8 6 7 6 5 4 4 6 5 6 2 3 5 6 6 8 9 9 8 7 8 11 15 17 19 20 20 22 22 21 21 22 25 28 28 27 28 30 30 30 29 29 30 28 27
9 12 12 10 8 7 4 6 4 5 3 2 2 3 4 4 4 5 1 3 6 11 12 12 12 11 10 10 13 15 16 16 15 13 15 19 22 24 26 28 27 27 29 27 26 28 30 28 28 28 27 27 27 29
10 7 8 7 9 4 5 8 7 6 6 4 3 4 3 3 3 1 2 4 8 11 10 10 10 11 11 9 5 5 8 11 17 22 24 23 26 31 29 29 26 24 25 26 27 27 27 26 24 25 26 27 27 27
6 10 6 6 6 5 4 3 3 3 3 3 3 2 1 3 2 1 2 4 1 3 3 5 4 3 4 8 12 15 16 20 25 31 31 25 26 29 29 26 23 22 22 25 25 23 24 24 26 27 28 27 27 28
7 11 5 2 3 4 1 3 2 3 3 3 3 1 2 2 2 4 3 3 2 5 6 7 12 16 19 19 23 26 28 28 29 31 31 24 22 23 26 26 27 25 20 21 21 22 24 25 27 29 31 32 31 30
4 3 6 6 6 7 5 6 5 4 3 3 3 2 2 2 3 5 5 5 2 4 15 22 25 27 29 30 30 30 29 27 24 24 22 21 21 23 24 26 26 24 20 18 17 19 24 28 30 31 33 32 30 28
5 4 5 2 5 4 5 3 3 4 4 5 8 3 7 8 5 3 2 10 20 28 30 30 28 27 26 25 22 19 16 15 16 17 18 19 17 16 16 17 18 17 16 18 22 26 28 30 32 35 35 31 29 29
4 5 4 5 3 3 1 4 5 4 6 10 5 3 5 5 6 16 25 28 26 21 17 14 11 10 10 11 11 12 13 12 13 15 16 17 17 15 17 19 20 21 23 26 28 29 30 31 31 29 25 24 27 27
4 3 4 2 2 3 2 7 3 4 7 11 10 12 19 24 26 23 13 5 8 13 15 17 19 20 19 18 15 13 12 13 14 14 17 21 24 25 28 29 30 30 29 31 32 31 29 29 26 23 25 23 22 23
2 2 3 1 2 2 3 7 10 13 14 12 17 19 22 15 7 8 9 9 10 12 15 18 20 26 25 19 17 18 21 21 22 23 26 30 31 31 31 32 33 34 33 30 27 24 24 23 21 21 17 18 20 19
3 3 2 2 4 4 8 4 4 4 3 3 2 2 3 2 3 2 2 2 2 7 12 19 30 27 22 20 20 22 22 26 29 31 32 32 30 31 33 31 26 23 21 20 20 18 17 19 20 18 17 19 17 16
0 1 2 3 4 3 2 5 3 5 2 2 1 2 2 2 3 1 2 2 6 15 26 34 29 24 22 21 22 24 29 30 29 28 27 26 27 26 23 23 19 14 14 16 19 21 22 21 18 18 18 16 13 13
Wind_Direction
250 251 245 244 247 254 243 251 257 260 257 267 266 257 230 232 237 247 259 263 258 266 258 230 224 199 183 188 157 157 116 195 80 159 168 225 200 230 165 168 179 173 157 193 155 203 274 179 114 180 236 302 215 194
259 249 251 247 247 246 243 243 249 255 257 256 260 259 249 233 238 240 246 249 262 258 271 256 241 236 231 221 206 181 201 170 178 118 196 127 220 163 186 264 354 254 194 180 188 215 256 212 235 238 265 250 214 202
269 257 251 249 247 245 243 239 238 246 254 253 256 249 259 247 234 241 245 248 258 267 270 256 251 244 241 233 226 222 219 196 195 192 160 161 223 139 187 233 215 239 186 225 126 254 245 263 261 258 261 245 242 222
283 272 261 251 247 245 242 240 243 236 242 247 244 248 245 253 251 234 243 245 242 263 262 254 245 234 240 237 230 227 231 206 195 188 177 156 204 195 219 219 200 212 154 198 257 281 273 273 270 274 254 244 232 215
293 288 272 262 252 246 244 243 242 244 234 236 237 241 237 239 247 248 242 241 236 230 257 281 278 256 245 240 235 230 227 216 193 172 141 216 219 163 234 352 251 192 195 182 235 268 255 282 298 299 266 246 223 216
287 289 286 273 260 254 246 240 241 244 240 234 230 228 230 227 233 244 281 244 236 231 270 302 249 240 238 239 233 226 215 216 215 208 202 224 223 197 193 222 261 254 249 255 259 276 285 284 281 282 252 229 215 209
282 285 285 280 270 259 251 244 240 236 241 240 224 217 224 226 223 207 227 295 227 201 236 270 267 206 191 186 198 198 195 207 213 216 236 261 223 213 224 227 258 259 261 281 297 300 285 278 273 257 228 209 199 193
278 280 282 283 277 266 255 246 241 235 230 232 226 210 221 226 230 219 226 247 161 183 236 158 269 200 183 182 192 181 186 201 223 240 226 211 206 212 259 239 245 273 293 302 293 265 276 296 257 227 201 193 185 185
277 278 277 279 279 269 259 247 238 232 234 240 228 201 214 218 220 211 211 219 219 218 250 190 165 228 172 157 152 160 173 194 221 233 237 178 203 223 233 269 274 284 298 293 296 292 262 273 238 199 184 175 180 173
276 274 275 275 274 268 257 250 240 231 232 237 213 180 198 208 202 197 183 185 213 212 218 220 197 198 167 157 139 133 158 217 229 246 200 233 254 255 268 283 292 288 284 280 267 249 243 232 204 184 177 171 165 153
275 273 273 272 267 260 253 248 241 229 218 199 175 170 165 159 154 171 164 177 186 230 207 206 200 153 180 132 165 193 172 170 47 260 184 252 270 262 256 307 304 299 294 274 234 240 257 252 190 178 169 155 249 304
277 275 277 274 267 259 250 241 229 218 200 203 179 148 152 188 174 158 173 160 199 215 172 161 185 159 143 151 120 168 171 120 239 156 232 256 255 284 321 324 329 316 328 159 162 203 160 160 173 174 197 299 306 307
278 273 274 276 264 249 239 226 214 200 204 177 178 148 163 174 187 193 185 199 191 178 161 151 159 155 135 154 114 133 157 216 131 202 236 230 270 300 304 39 45 63 93 119 125 134 146 158 194 264 287 296 300 300
277 274 273 260 240 234 225 210 197 187 183 192 162 151 204 190 220 185 181 169 171 160 154 153 130 133 137 129 147 125 196 140 212 227 232 239 165 141 137 128 97 87 89 119 163 192 245 282 291 295 300 304 305 305
279 273 258 234 220 215 214 200 182 179 182 168 186 197 198 189 111 164 154 138 143 154 146 126 98 122 157 129 181 121 133 228 225 225 226 166 146 124 116 99 86 40 323 292 279 276 280 287 293 295 298 300 298 301
281 255 226 215 215 207 190 171 169 179 196 176 177 104 151 116 145 160 153 143 149 150 141 114 126 133 186 148 143 199 164 221 239 209 173 162 154 136 20 329 306 302 304 299 292 289 293 299 302 302 299 297 298 300
223 195 196 191 179 169 165 159 167 174 174 148 210 214 185 145 165 165 159 160 158 152 140 134 142 188 109 123 208 191 206 221 192 184 174 171 160 340 330 316 310 307 302 296 293 293 294 298 299 299 296 298 300 301
153 167 165 158 158 151 146 150 134 112 118 141 166 168 195 160 152 151 155 162 152 170 138 192 134 146 178 172 228 228 209 157 138 142 184 202 282 303 299 297 296 292 289 290 294 296 297 298 298 297 299 300 302 300
120 148 154 156 152 136 91 75 94 110 70 86 116 131 122 129 141 157 157 159 155 142 134 112 116 173 206 208 199 173 176 183 186 187 231 291 296 296 295 291 289 290 293 297 298 297 299 301 302 303 305 307 305 302
92 123 145 152 156 104 97 99 118 107 124 130 112 110 108 100 131 155 151 144 143 123 92 170 193 195 182 151 152 180 206 248 254 294 293 292 294 293 291 292 293 297 300 300 300 302 307 306 303 305 306 305 304 302
83 87 116 144 133 77 80 74 78 103 102 96 101 94 81 103 117 119 105 139 121 153 193 202 187 175 210 239 256 262 272 285 286 284 287 293 298 295 295 299 303 304 301 302 304 306 306 303 304 304 303 302 301 299
58 52 65 75 72 63 63 46 99 104 88 109 78 70 85 68 62 60 101 56 227 221 202 224 265 277 273 281 296 300 291 281 281 284 288 293 294 302 306 307 305 300 296 296 300 302 301 303 304 306 306 304 304 304
56 55 45 50 76 74 49 41 83 47 92 93 89 77 42 60 59 120 96 239 250 244 250 256 264 281 293 293 280 276 283 286 289 298 302 301 303 301 301 302 302 299 298 301 303 302 302 307 306 304 302 304 307 308
39 50 37 46 51 60 39 29 35 48 52 35 48 60 28 57 93 86 232 252 247 268 268 271 271 266 269 274 282 313 316 314 311 306 303 304 298 295 299 299 300 301 301 304 305 306 306 304 305 305 305 306 308 308
57 15 38 44 52 76 55 40 31 63 85 41 79 58 36 48 64 28 246 274 276 56 134 182 188 204 274 298 301 304 307 309 309 303 300 302 298 298 297 298 300 302 309 309 310 306 304 307 309 309 309 310 310 311
62 18 44 40 17 82 81 86 44 83 78 53 37 42 65 85 78 241 233 251 117 82 59 25 341 322 309 307 304 301 303 305 304 296 297 300 294 290 293 298 302 304 313 305 300 303 306 308 308 308 308 308 307 307
68 15 37 48 74 97 78 71 82 85 98 160 191 125 88 110 240 253 240 205 126 336 317 314 310 307 306 304 300 298 297 295 289 288 291 290 290 291 291 292 294 302 301 296 298 304 306 308 309 310 311 309 308 310
80 72 113 75 75 57 113 80 131 171 189 169 147 174 169 191 225 201 135 312 308 307 304 303 305 303 297 292 291 291 290 283 282 285 288 293 300 300 298 296 292 293 287 288 294 300 303 306 306 308 309 307 306 304
74 112 113 58 44 36 167 161 200 193 177 174 155 206 237 223 270 292 300 304 303 303 306 316 333 324 316 305 301 296 298 299 299 300 301 303 308 313 308 304 297 289 289 291 293 299 302 302 306 308 303 298 298 301
46 74 88 111 140 228 207 191 192 203 215 225 241 259 270 280 290 304 315 24 41 26 16 9 1 353 339 323 312 301 300 307 308 303 302 301 301 304 302 299 297 297 296 296 298 299 298 299 304 303 304 308 313 315
66 156 50 44 256 317 292 287 283 280 271 267 272 269 280 301 350 92 80 66 44 27 8 354 346 346 337 325 315 312 311 310 309 307 306 304 303 301 298 296 296 296 296 295 295 296 300 305 305 310 310 313 317 319
42 44 48 336 301 309 309 309 313 318 322 316 309 317 319 284 292 141 164 53 14 350 355 344 337 334 326 318 312 310 308 308 307 305 302 299 295 294 296 299 300 298 299 299 300 302 308 307 306 305 301 309 316 322
161 288 289 290 304 311 312 328 341 341 282 296 335 325 302 283 270 275 332 307 344 346 343 344 339 334 329 319 312 309 307 307 306 303 302 299 297 298 298 299 302 305 300 295 296 300 302 301 292 291 295 304 311 321